Home > Weather > Ufa > Past weeks

Flag for Russia Weather for the Past 2 Weeks in Ufa, Russia

Now
12 °F

Ice fog.


Feels Like: 3 °F
Forecast: 5 / 16 °F
Wind: 6 mph from Southeast

Location: Ufa

Current Time: Feb 14, 2016 at 8:49:58 AM

Latest Report: Feb 14, 2016 at 8:00 AM


Visibility: 1 mi

Pressure: 30.51 "Hg

Humidity: 85%

Dew point: 9 °F

Location of UfaLocation

Historic Weather in Ufa — Graph

°F

Ufa Temperature Yesterday

Maximum temperature yesterday: 21 °F (at 3:30 PM)
Minimum temperature yesterday: 0 °F (at 8:00 AM)
Average temperature yesterday: 8 °F

High & Low Weather Summary for the Past Weeks

 TemperatureHumidityPressure
High36 °F (Feb 2, 3:00 PM)100% (Feb 2, 1:30 PM)30.69 "Hg (Feb 2, 1:30 PM)
Low0 °F (Feb 13, 8:00 AM)59% (Feb 6, 6:00 AM)29.45 "Hg (Feb 4, 7:00 AM)
Average22 °F85%30.13 "Hg
* Reported Jan 30 7:00 AM — Feb 14 7:30 AM, Ufa, Weather by CustomWeather, © 2016

Note: Actual official high and low records may vary slightly from our data, if they occured in-between our weather recording intervals... More about our weather records

Advertising

Ufa Weather History for the Previous 24 Hours

 ConditionsComfort  
Time TempWeatherWind HumidityBarometerVisibility
7:30 AM
Sun, Feb 14
12 °FIce fog.6 mph85%30.51 "Hg1 mi
7:00 AM12 °FIce fog.6 mph85%30.51 "Hg1 mi
6:30 AM9 °FIce fog.3 mph92%30.51 "Hg1 mi
6:00 AM9 °FIce fog.3 mph85%30.51 "Hg1 mi
5:30 AM9 °FIce fog.3 mph85%30.51 "Hg2 mi
5:00 AM9 °FIce fog.6 mph85%30.51 "Hg2 mi
4:30 AM9 °FIce fog.3 mph85%30.51 "Hg2 mi
4:00 AM7 °FIce fog.No wind85%30.51 "Hg2 mi
3:30 AM3 °FIce fog.1 mph85%30.51 "Hg2 mi
2:30 AM3 °FIce fog.3 mph85%30.51 "Hg2 mi
2:00 AM5 °FIce fog.3 mph92%30.51 "Hg2 mi
1:30 AM5 °FIce fog.No wind85%30.48 "Hg2 mi
1:00 AM5 °FIce fog.3 mph85%30.48 "Hg3 mi
12:30 AM9 °FIce fog.3 mph85%30.48 "Hg3 mi
12:00 AM7 °FIce fog.6 mph92%30.48 "Hg3 mi
11:30 PM
Sat, Feb 13
3 °FIce fog.6 mph85%30.45 "Hg3 mi
11:00 PM5 °FClear.3 mph85%30.45 "Hg10 mi
10:30 PM7 °FClear.3 mph85%30.45 "Hg10 mi
10:00 PM10 °FClear.6 mph79%30.45 "Hg10 mi
9:30 PM9 °FIce fog.8 mph85%30.45 "Hg3 mi
9:00 PM7 °FIce fog.6 mph78%30.45 "Hg3 mi
8:30 PM9 °FClear.1 mph85%30.45 "Hg10 mi
8:00 PM10 °FSunny.1 mph79%30.48 "Hg10 mi
7:30 PM7 °FSunny.1 mph78%30.45 "Hg10 mi
7:00 PM12 °FSunny.1 mph73%30.45 "Hg10 mi
6:30 PM14 °FSunny.1 mph79%30.45 "Hg10 mi
6:00 PM16 °FSunny.3 mph67%30.45 "Hg10 mi
5:30 PM16 °FSunny.3 mph67%30.48 "Hg10 mi
5:00 PM19 °FSunny.1 mph63%30.48 "Hg10 mi
4:30 PM19 °FSunny.1 mph68%30.45 "Hg10 mi
4:00 PM19 °FSunny.3 mph68%30.48 "Hg10 mi
3:30 PM21 °FSunny.1 mph63%30.48 "Hg10 mi
3:00 PM19 °FSunny.3 mph68%30.48 "Hg10 mi
2:30 PM19 °FSunny.1 mph68%30.48 "Hg10 mi
2:00 PM18 °FSunny.3 mph68%30.48 "Hg10 mi
1:30 PM16 °FIce fog.1 mph73%30.51 "Hg2 mi
1:00 PM18 °FIce fog.No wind62%30.51 "Hg2 mi
12:30 PM12 °FSunny.1 mph85%30.51 "Hg10 mi
12:00 PM9 °FIce fog.1 mph85%30.51 "Hg2 mi
11:30 AM12 °FIce fog.1 mph85%30.51 "Hg2 mi
11:00 AM7 °FIce fog.3 mph85%30.51 "Hg2 mi
10:30 AM3 °FIce fog.1 mph85%30.51 "Hg2 mi
10:00 AM1 °FIce fog.3 mph85%30.51 "Hg2 mi
9:30 AM1 °FIce fog.1 mph85%30.51 "Hg2 mi
9:00 AM1 °FIce fog.1 mph85%30.54 "Hg2 mi
8:30 AM0 °FIce fog.3 mph84%30.54 "Hg2 mi
8:00 AM0 °FIce fog.3 mph84%30.54 "Hg3 mi
Weather by CustomWeather, © 2016

See weather overviewHow to use our weather pages